Wind_Speed
15 15 15 15 14 13 12 10 7 4 8 10 9 9 9 8 8 7 7 6 6 6 5 5 5 4 4 4 4 4 4 4 5 7 7 7 8 9 10 10 10 10
15 15 16 15 13 12 11 9 7 6 10 12 11 11 10 9 9 8 7 7 7 6 6 6 5 5 5 5 5 5 5 4 5 7 7 9 10 10 10 11 11 11
16 16 15 14 13 12 12 11 7 9 14 14 12 12 11 10 10 9 9 8 7 7 7 6 6 6 5 5 5 5 5 4 6 7 8 10 11 11 12 12 11 12
16 16 15 15 14 14 14 12 9 14 16 15 14 13 12 12 11 11 10 8 8 8 8 8 7 7 6 5 5 4 5 5 7 8 9 12 13 13 13 12 12 12
16 16 16 15 16 15 14 11 13 17 17 16 15 14 13 13 12 11 10 9 9 9 9 9 8 7 6 5 4 4 4 6 8 8 10 13 14 14 14 12 12 13
17 17 17 17 17 16 13 14 17 18 17 17 16 15 14 13 12 12 11 10 10 9 9 9 8 7 6 5 4 4 5 7 8 8 10 13 13 13 13 13 13 13
19 19 19 19 17 15 15 19 19 18 18 17 16 15 14 12 12 11 10 10 9 9 8 8 7 7 6 5 4 4 6 8 8 8 9 12 12 13 13 14 14 14
19 20 20 19 17 18 20 21 20 19 19 17 16 15 13 12 11 10 10 9 8 8 7 6 6 6 5 5 4 4 6 8 9 9 10 12 13 13 13 14 14 14
19 21 21 20 20 21 22 22 21 19 18 16 15 14 12 12 11 10 10 9 8 7 6 6 5 4 4 4 4 5 6 8 9 10 11 13 14 13 13 13 14 14
20 20 20 20 21 22 22 22 21 19 17 15 14 13 12 12 11 11 11 10 9 8 7 6 5 4 3 2 3 5 7 9 10 12 13 14 14 14 14 14 15 16
19 19 19 20 22 22 22 21 20 18 16 14 13 12 12 13 13 12 11 10 10 9 8 7 5 4 3 3 4 6 8 10 11 12 13 14 14 14 15 16 17 16
19 20 20 21 22 22 21 21 19 18 16 14 13 13 13 14 13 12 11 10 9 9 8 7 5 5 4 4 5 6 8 9 11 12 12 13 13 14 16 17 18 17
20 20 21 21 22 22 21 20 18 17 15 14 13 13 14 13 12 12 11 10 9 8 8 7 6 5 5 5 6 7 7 8 10 10 11 11 11 13 16 17 18 17
20 20 21 22 22 22 21 20 18 17 15 14 14 14 14 13 12 12 11 11 10 9 8 7 6 6 6 6 7 7 8 8 8 9 8 8 9 12 14 16 18 17
21 22 23 23 23 22 21 20 19 17 15 14 14 15 14 13 12 12 11 11 11 9 8 8 7 7 7 7 7 7 8 8 7 7 6 5 7 10 11 13 17 18
24 25 25 24 23 22 22 21 20 18 16 15 15 14 14 13 13 13 12 11 10 10 9 8 8 8 8 8 8 7 8 8 8 7 4 3 5 8 9 11 15 17
26 26 26 24 23 22 22 21 20 19 17 16 15 15 14 14 13 13 12 11 10 10 9 9 9 8 8 8 8 8 8 9 9 7 4 3 4 5 7 10 14 16
28 27 26 25 24 23 22 21 20 19 17 16 16 15 15 14 14 13 12 11 10 9 9 9 9 9 9 9 8 8 8 8 7 5 3 3 3 4 5 9 13 14
28 28 27 27 25 24 23 21 20 18 16 16 17 16 15 15 14 13 12 12 11 10 9 9 9 9 9 9 9 8 7 7 6 5 2 1 2 3 5 8 11 13
29 29 29 28 26 25 23 22 20 18 15 16 17 17 16 15 14 14 13 12 11 10 9 9 9 9 9 9 8 7 6 7 6 4 2 0 1 3 3 6 9 11
31 30 29 28 27 26 24 22 21 19 16 16 17 16 16 15 15 14 13 12 11 10 9 9 9 9 8 7 6 5 5 6 5 4 2 1 0 1 3 5 7 9
31 30 29 29 28 26 24 23 21 19 18 18 18 17 16 15 15 13 12 12 11 10 9 9 9 9 8 7 6 5 5 6 6 5 3 2 1 2 5 6 7 8
31 30 30 29 28 26 24 23 21 19 19 19 19 18 17 16 14 13 12 11 11 10 9 8 9 9 8 7 6 5 4 5 6 5 4 2 2 4 6 7 7 8
31 31 30 29 27 25 24 22 21 20 19 19 19 19 17 15 14 14 13 11 11 10 9 8 8 8 8 6 6 5 4 4 4 3 2 1 2 4 5 5 6 8
31 31 30 29 27 25 23 22 22 21 20 19 18 18 17 16 15 14 13 12 11 10 9 8 7 8 8 7 6 5 4 4 3 2 2 2 2 3 3 4 5 7
31 31 30 28 26 24 23 23 22 22 21 20 18 18 18 18 16 15 14 13 12 11 10 9 8 7 7 7 6 5 4 4 3 3 3 3 3 2 2 3 4 6
Wind_Direction
228 231 236 239 239 243 247 253 271 241 191 171 163 166 168 173 177 182 192 197 201 199 191 188 184 183 177 151 133 121 109 97 84 73 67 68 69 68 68 67 63 59
228 231 237 237 234 237 242 252 266 220 182 167 164 169 172 177 180 184 193 194 195 189 179 175 169 166 161 145 135 123 111 96 81 74 71 75 77 75 74 71 67 63
226 230 231 230 232 233 239 252 245 191 175 168 168 173 175 179 182 185 189 188 187 180 170 164 157 155 154 146 141 127 115 100 82 76 77 80 81 81 77 73 72 68
226 227 226 228 230 232 240 248 212 176 172 170 170 175 178 180 184 185 184 181 180 174 166 162 157 156 153 145 139 128 115 103 87 78 80 85 86 84 81 76 74 69
225 224 225 226 227 232 238 226 186 172 171 172 173 178 182 183 184 184 181 176 173 168 164 164 161 156 149 141 137 126 109 97 86 78 81 89 92 87 80 74 69 63
221 223 226 226 228 229 219 190 174 171 172 174 178 181 184 183 181 180 178 175 171 167 165 165 162 156 149 145 141 125 104 91 84 76 78 89 94 86 76 69 61 55
224 224 224 223 218 206 185 173 170 172 175 179 182 183 183 181 177 175 174 174 173 171 169 168 166 161 152 148 143 120 100 91 85 78 77 84 88 80 69 62 56 51
214 211 210 205 191 176 170 170 173 176 179 182 182 181 180 178 174 171 170 172 174 175 174 173 173 167 154 146 141 112 94 89 86 81 75 75 76 70 60 55 51 48
190 187 186 180 171 168 170 173 176 179 182 185 184 180 178 176 171 168 167 168 171 171 170 170 168 161 150 143 132 106 93 92 90 84 75 70 68 63 56 52 49 46
177 173 171 169 168 170 173 175 178 182 184 186 186 181 175 172 168 167 168 168 169 166 161 158 155 150 147 134 117 104 101 103 99 87 77 69 65 59 54 49 47 45
175 173 173 173 172 173 175 178 181 185 188 189 186 178 173 171 169 169 169 169 170 167 160 158 152 144 140 131 121 112 110 111 103 90 79 68 60 55 50 45 42 40
178 179 179 176 175 175 178 182 185 188 190 188 184 177 172 171 170 169 167 169 171 166 162 160 152 141 135 132 127 117 113 112 104 95 82 69 58 50 43 39 35 32
183 183 182 179 178 178 181 185 189 190 189 184 180 176 174 173 172 169 166 167 168 164 161 158 151 146 140 137 131 120 116 114 109 102 86 69 56 46 38 32 28 25
190 188 184 182 181 181 184 188 191 190 187 181 176 176 176 174 172 171 168 165 164 160 158 155 152 152 149 144 135 124 120 117 112 104 87 66 51 42 35 26 21 19
193 187 184 183 182 183 185 188 191 192 188 182 177 176 178 175 172 171 168 165 161 158 158 156 154 157 154 146 138 131 126 122 117 108 89 64 46 35 26 20 15 13
190 186 184 185 185 186 187 189 193 194 192 187 181 179 179 175 171 169 165 163 159 157 157 154 155 158 154 148 141 133 125 119 116 112 100 63 39 29 17 11 8 6
189 187 187 188 188 188 189 192 194 194 193 188 184 183 179 174 171 168 164 160 159 158 155 152 155 155 151 148 144 138 130 118 108 102 87 46 32 31 16 6 2 1
190 189 188 188 189 190 192 194 195 196 191 185 184 184 178 173 171 168 164 160 158 157 153 151 153 151 148 149 149 148 142 128 120 117 98 52 41 41 23 6 358 357
192 191 190 189 190 191 194 196 198 198 191 183 182 182 177 174 171 168 164 160 157 156 154 150 148 147 148 153 157 154 146 143 153 166 161 104 86 72 32 5 353 356
193 192 192 191 191 193 196 198 200 200 192 183 181 181 178 175 172 169 164 158 154 154 152 146 144 144 150 158 163 161 156 162 178 197 215 219 111 97 41 360 353 1
195 194 194 194 193 195 197 199 201 200 193 185 182 180 178 176 172 168 163 155 151 150 147 144 141 140 146 156 164 171 177 185 198 214 242 282 62 69 16 2 6 12
196 196 196 196 195 195 197 199 200 199 192 186 183 180 177 175 170 164 159 153 147 145 145 143 138 133 133 139 151 171 188 200 212 226 246 274 318 2 5 9 17 23
197 197 197 196 196 196 197 199 199 197 192 187 184 182 178 173 167 160 155 150 145 142 144 144 136 130 128 130 137 147 165 187 205 218 234 265 327 7 11 10 19 29
198 199 198 197 198 199 199 198 197 195 193 188 185 185 180 172 166 158 152 148 145 142 144 146 140 135 133 133 133 129 133 152 173 190 202 237 11 18 13 11 20 32
198 199 200 199 200 200 199 198 195 194 193 189 184 183 177 170 166 161 153 149 148 146 145 145 144 140 137 133 128 123 120 124 131 141 136 87 52 32 17 18 27 33
198 199 201 202 203 201 198 197 195 193 191 187 182 176 172 168 166 162 156 151 149 145 142 140 137 134 130 123 118 112 104 101 103 113 107 85 72 63 40 35 39 40
Height
1547 1547 1547 1547 1546 1546 1546 1547 1548 1548 1548 1548 1549 1550 1551 1552 1553 1554 1554 1555 1555 1555 1556 1556 1555 1555 1555 1555 1555 1555 1554 1553 1553 1552 1552 1551 1551 1551 1551 1550 1550 1549
1546 1546 1546 1546 1546 1546 1546 1547 1548 1548 1548 1549 1550 1551 1552 1553 1553 1554 1555 1555 1556 1556 1556 1556 1556 1556 1556 1556 1556 1555 1554 1554 1553 1553 1553 1552 1552 1552 1551 1551 1551 1550
1546 1545 1545 1545 1545 1546 1546 1547 1547 1548 1548 1549 1550 1551 1552 1553 1554 1554 1555 1556 1556 1557 1557 1557 1557 1557 1556 1556 1556 1556 1555 1554 1554 1554 1554 1553 1553 1553 1552 1552 1552 1551
1545 1545 1545 1545 1545 1545 1546 1546 1547 1548 1548 1549 1550 1552 1552 1553 1554 1555 1555 1556 1557 1557 1557 1557 1557 1557 1557 1557 1557 1556 1556 1555 1555 1555 1555 1554 1554 1553 1553 1553 1552 1552
1544 1544 1544 1544 1544 1545 1545 1546 1547 1548 1549 1550 1551 1552 1553 1554 1554 1555 1556 1556 1557 1557 1557 1558 1558 1558 1558 1558 1557 1557 1556 1556 1556 1556 1555 1554 1554 1554 1554 1554 1553 1552
1543 1543 1543 1543 1544 1544 1545 1546 1548 1549 1549 1550 1551 1552 1553 1554 1555 1555 1556 1556 1557 1557 1557 1558 1558 1558 1558 1558 1558 1557 1557 1557 1556 1556 1555 1555 1555 1555 1554 1554 1553 1552
1541 1541 1541 1542 1543 1544 1545 1547 1548 1549 1550 1551 1552 1553 1553 1554 1555 1555 1556 1556 1557 1557 1558 1558 1558 1558 1558 1558 1558 1557 1557 1557 1557 1556 1556 1556 1555 1555 1555 1554 1554 1553
1540 1540 1540 1541 1543 1544 1546 1547 1549 1550 1550 1551 1552 1553 1554 1554 1555 1556 1556 1556 1557 1557 1558 1558 1559 1559 1558 1558 1558 1558 1558 1557 1557 1557 1556 1556 1556 1556 1555 1555 1554 1553
1538 1539 1540 1541 1543 1545 1546 1547 1549 1550 1551 1552 1552 1553 1554 1555 1555 1556 1556 1557 1557 1558 1558 1559 1559 1559 1559 1559 1558 1558 1558 1558 1558 1557 1557 1557 1557 1556 1556 1556 1555 1554
1538 1539 1541 1542 1543 1545 1547 1548 1549 1549 1550 1551 1552 1553 1554 1555 1556 1556 1557 1557 1557 1558 1558 1559 1559 1559 1559 1559 1559 1558 1558 1558 1558 1558 1558 1557 1557 1557 1557 1556 1555 1554
1538 1540 1541 1543 1544 1545 1547 1548 1548 1549 1550 1551 1552 1553 1554 1555 1556 1556 1557 1557 1558 1558 1558 1559 1559 1559 1559 1559 1559 1559 1558 1558 1558 1558 1558 1558 1558 1557 1557 1556 1555 1554
1539 1540 1542 1543 1544 1545 1547 1548 1548 1549 1550 1551 1553 1554 1554 1555 1556 1556 1557 1557 1558 1558 1558 1559 1559 1559 1559 1559 1559 1559 1559 1559 1559 1559 1559 1559 1558 1558 1557 1556 1556 1554
1540 1541 1542 1544 1545 1546 1547 1548 1548 1549 1550 1551 1553 1553 1554 1555 1556 1556 1557 1557 1558 1558 1558 1559 1559 1559 1559 1560 1560 1560 1559 1559 1559 1559 1560 1559 1559 1559 1558 1557 1556 1554
1540 1542 1543 1544 1545 1546 1547 1548 1549 1549 1550 1551 1552 1553 1554 1555 1556 1556 1557 1557 1558 1558 1558 1559 1559 1559 1560 1560 1560 1560 1560 1560 1559 1560 1560 1560 1560 1559 1558 1557 1556 1554
1541 1542 1543 1545 1546 1546 1547 1548 1549 1549 1550 1551 1552 1553 1554 1555 1556 1557 1557 1558 1558 1558 1559 1559 1559 1560 1560 1560 1560 1560 1560 1560 1560 1560 1560 1560 1560 1560 1559 1558 1556 1554
1541 1542 1544 1545 1546 1546 1547 1548 1549 1549 1550 1551 1552 1553 1554 1555 1556 1557 1557 1558 1558 1558 1559 1559 1560 1560 1560 1560 1561 1561 1561 1561 1561 1561 1561 1560 1560 1560 1559 1557 1556 1554
1541 1542 1544 1545 1546 1546 1547 1548 1549 1549 1550 1551 1552 1553 1554 1555 1556 1557 1557 1558 1558 1558 1559 1559 1560 1560 1560 1560 1561 1561 1561 1561 1561 1561 1561 1561 1560 1559 1558 1557 1556 1554
1540 1542 1543 1545 1545 1546 1547 1548 1549 1550 1551 1552 1552 1553 1554 1555 1556 1557 1557 1558 1558 1559 1559 1559 1560 1560 1560 1561 1561 1561 1561 1561 1561 1561 1560 1560 1560 1559 1558 1557 1555 1554
1540 1541 1543 1544 1545 1546 1547 1548 1549 1550 1551 1552 1553 1553 1555 1555 1556 1557 1557 1558 1558 1559 1559 1560 1560 1560 1560 1561 1561 1562 1562 1562 1561 1561 1560 1560 1559 1559 1558 1557 1555 1553
1539 1541 1542 1544 1545 1546 1547 1548 1549 1550 1551 1552 1553 1554 1555 1556 1556 1557 1557 1558 1558 1559 1560 1560 1560 1560 1560 1561 1561 1562 1562 1562 1561 1560 1560 1559 1559 1558 1557 1556 1554 1553
1538 1540 1542 1543 1545 1546 1547 1548 1549 1550 1551 1552 1553 1554 1556 1556 1557 1557 1558 1558 1559 1559 1560 1560 1560 1560 1561 1561 1562 1562 1562 1562 1561 1560 1560 1559 1558 1557 1556 1555 1554 1552
1537 1539 1541 1542 1544 1545 1546 1548 1549 1550 1551 1552 1554 1555 1556 1557 1557 1558 1558 1558 1559 1559 1560 1560 1560 1561 1561 1561 1561 1561 1562 1561 1561 1560 1559 1559 1558 1557 1556 1555 1553 1552
1536 1538 1540 1541 1543 1544 1546 1547 1548 1550 1551 1552 1554 1555 1556 1557 1557 1558 1558 1559 1559 1560 1560 1561 1561 1561 1561 1561 1561 1561 1561 1561 1560 1560 1559 1558 1557 1556 1555 1554 1553 1552
1535 1537 1539 1540 1542 1544 1545 1547 1548 1549 1551 1552 1554 1555 1556 1557 1558 1558 1559 1559 1560 1560 1561 1561 1561 1561 1561 1561 1561 1560 1560 1560 1559 1559 1558 1557 1556 1556 1555 1554 1553 1552
1534 1536 1538 1540 1541 1543 1545 1546 1547 1549 1550 1552 1554 1555 1556 1557 1557 1558 1559 1559 1560 1561 1561 1561 1561 1561 1561 1561 1561 1560 1559 1559 1559 1558 1558 1557 1556 1555 1555 1554 1553 1551
1533 1535 1537 1539 1541 1542 1544 1546 1547 1549 1550 1552 1553 1555 1556 1556 1557 1558 1559 1559 1560 1561 1561 1561 1561 1561 1561 1561 1560 1560 1559 1558 1558 1558 1557 1556 1555 1555 1554 1553 1553 1551